Location: Contre
(49.7477°N, 2.0963°E)
Time: 21:34:04
(UTC+00:00)

Meteor 2-12 Rocket - Pass Details

Date: 11 August 2024
Orbit: 936 x 957 km, 82.5° (Epoch: 07 September)

Event Time Altitude Azimuth Distance (km) Brightness Sun altitude
Rises 02:36:27 0° 334° (NNW) 3,613 7.8 -16.2°
Reaches altitude 10° 02:40:40 10° 306° (NW) 2,666 6.7 -15.8°
Maximum altitude 02:42:53 12° 285° (WNW) 2,508 6.4 -15.5°
Enters shadow 02:44:42 11° 267° (W) 2,613 6.3 -15.3°
